Nederland, TX

12:50 PM CST on January 24, 2017 (GMT -0600)
Southeast Texas Regional

Weather History for KBPT - October, 2013

Change the Weather History Date:

Sunday, October 6, 2013

  Actual Average Record
Temperature  
Mean Temperature 67 °F 73 °F  
Max Temperature 76 °F 83 °F 96 °F (1925)
Min Temperature 58 °F 64 °F 44 °F (1964)
Degree Days  
Heating Degree Days 0 0  
Month to date heating degree days 0 0  
Since 1 July heating degree days 0 1  
Cooling Degree Days 2 9  
Month to date cooling degree days 83 56  
Year to date cooling degree days 2807 2642  
Growing Degree Days 18 (Base 50)    
Moisture  
Dew Point 57 °F    
Average Humidity 66    
Maximum Humidity 93    
Minimum Humidity 38    
Precipitation  
Precipitation 0.00 in 0.18 in 3.02 in (1970)
Month to date precipitation 1.33 1.10  
Year to date precipitation 44.68 46.30  
Snow  
Snow 0.00 in 0.00 in 0.00 in ()
Month to date snowfall 0.0 0.0  
Since 1 July snowfall 0.0 0.0  
Since 1 September snowfall 0.0 0.0  
Snow Depth 0.00 in    
Sea Level Pressure  
Sea Level Pressure 29.97 in    
Wind  
Wind Speed 12 mph (NNW)    
Max Wind Speed 22 mph    
Max Gust Speed 26 mph    
Visibility 10 miles    
Events Rain    
T = Trace of Precipitation, MM = Missing Value Source: NWS Daily Summary

Daily Weather History Graph

Daily Weather History Graph

Search for Another Location

Airport or City:

Trip Planner

Search our weather history database for the weather conditions in past years. The results will help you decide how hot, cold, wet, or windy it might be!

Date:

Astronomy

Oct. 06, 2013 Rise Set
Actual Time 7:12 AM CDT 6:55 PM CDT
Civil Twilight 6:48 AM CDT 7:19 PM CDT
Nautical Twilight 6:20 AM CDT 7:46 PM CDT
Astronomical Twilight 5:53 AM CDT 8:14 PM CDT
Moon 8:48 AM CDT (10/6) 8:06 PM CDT (10/6)
Length of Visible Light 12h 30m
Length of Day
11h 42m
Waxing Crescent, 3% of the Moon is Illuminated
Oct 6
Waxing Crescent
Oct 11
First Quarter
Oct 18
Full
Oct 26
Last Quarter
Nov 3
New

Hourly Weather History & Observations

Time (CDT) Temp. Dew Point Humidity Pressure Visibility Wind Dir Wind Speed Gust Speed Precip Events Conditions
12:00 AM 75.2 °F 73.4 °F 94% 29.91 in 2.0 mi North 11.5 mph - 0.12 in Rain Rain
12:05 AM 75.2 °F 73.4 °F 94% 29.91 in 5.0 mi North 12.7 mph - 0.13 in Rain Light Rain
12:53 AM 73.0 °F 71.1 °F 93% 29.91 in 10.0 mi NNW 11.5 mph - 0.13 in   Scattered Clouds
1:00 AM 73.4 °F 69.8 °F 88% 29.91 in 10.0 mi NNW 12.7 mph - N/A   Mostly Cloudy
1:15 AM 71.6 °F 68.0 °F 88% 29.92 in 10.0 mi North 16.1 mph 23.0 mph N/A   Scattered Clouds
1:53 AM 71.1 °F 66.9 °F 87% 29.91 in 10.0 mi NNW 16.1 mph - N/A   Partly Cloudy
2:53 AM 69.1 °F 66.0 °F 90% 29.91 in 10.0 mi NNW 10.4 mph - N/A   Clear
3:53 AM 66.9 °F 64.0 °F 90% 29.91 in 10.0 mi NNW 11.5 mph - N/A   Clear
4:53 AM 64.9 °F 61.0 °F 87% 29.91 in 10.0 mi North 15.0 mph - N/A   Clear
5:53 AM 63.0 °F 59.0 °F 87% 29.94 in 10.0 mi NNW 16.1 mph - N/A   Clear
6:53 AM 63.0 °F 57.0 °F 81% 29.96 in 10.0 mi NNW 18.4 mph 23.0 mph N/A   Clear
7:53 AM 63.0 °F 54.0 °F 72% 29.98 in 10.0 mi NNW 13.8 mph 23.0 mph N/A   Partly Cloudy
8:53 AM 64.0 °F 53.1 °F 67% 30.01 in 10.0 mi North 19.6 mph 26.5 mph N/A   Overcast
9:53 AM 66.0 °F 52.0 °F 60% 30.02 in 10.0 mi North 16.1 mph 24.2 mph N/A   Overcast
10:53 AM 68.0 °F 52.0 °F 56% 30.05 in 10.0 mi NNW 20.7 mph 26.5 mph N/A   Mostly Cloudy
11:53 AM 66.0 °F 51.1 °F 59% 30.02 in 10.0 mi North 16.1 mph - N/A   Mostly Cloudy
12:53 PM 66.9 °F 51.1 °F 57% 30.01 in 10.0 mi North 13.8 mph - N/A   Mostly Cloudy
1:53 PM 69.1 °F 50.0 °F 51% 29.99 in 10.0 mi North 13.8 mph 20.7 mph N/A   Clear
2:53 PM 71.1 °F 48.0 °F 44% 29.96 in 10.0 mi North 12.7 mph - N/A   Clear
3:53 PM 75.0 °F 48.0 °F 38% 29.96 in 10.0 mi North 12.7 mph 20.7 mph N/A   Clear
4:53 PM 75.9 °F 48.9 °F 38% 29.95 in 10.0 mi NNW 12.7 mph - N/A   Clear
5:53 PM 73.0 °F 46.9 °F 39% 29.96 in 10.0 mi NNW 11.5 mph - N/A   Clear
6:53 PM 68.0 °F 48.9 °F 50% 29.98 in 10.0 mi NW 3.5 mph - N/A   Clear
7:53 PM 63.0 °F 53.1 °F 70% 29.99 in 10.0 mi Calm Calm - N/A   Clear
8:53 PM 63.0 °F 55.0 °F 75% 30.01 in 10.0 mi West 4.6 mph - N/A   Clear
9:53 PM 63.0 °F 52.0 °F 67% 30.04 in 10.0 mi WNW 5.8 mph - N/A   Clear
10:53 PM 62.1 °F 52.0 °F 70% 30.04 in 10.0 mi NW 4.6 mph - N/A   Clear
11:53 PM 60.1 °F 48.9 °F 67% 30.04 in 10.0 mi NNW 6.9 mph - N/A   Clear